sat.trackr.live / text

‹ back to catalog

STARLINK-31808

NORAD 59751 · 2024-090X

PAYLOAD ACTIVE UNKNOWN

§ Identity

Operator
Country
US
Launch date
2024-05-13
Launch site
AFETR
Launch vehicle
Mass (kg)
RCS (m²)

Purposes: comms

External: N2YO · Heavens-Above · Gunter

§ Orbital elements

Epoch: 2026-05-25T04:24:29.564064Z

Period
94.27 min
Inclination
43.0019°
Eccentricity
0.0000953
Mean motion
15.27578952 rev/d
Perigee alt
482.4 km
Apogee alt
483.7 km
Semi-major
6,861.2 km
B*
5.2859e-5
RAAN
111.0857°
Arg perigee
263.6959°
Mean anomaly
96.3784°
Rev number
11,513

§ Raw data

STARLINK-318081 59751U 24090X   26145.18367551  .00001193  00000+0  52859-4 0  99922 59751  43.0019 111.0857 0000953 263.6959  96.3784 15.27578952115135

JSON: /api/v1/satellites/59751 · /tle

For live sub-satellite position, see the globe view (requires WebGL).

§ Visibility from observer

Set your observer location to see the next 7 days of passes ≥ 10°. The values pass through the URL so the page stays shareable.

No JS? Fill the form by hand. The geolocation button needs JavaScript.